N603Q KASH-

Flight info

Callsign N603Q
Flight time N/A
Altitude VFR
Route
Aircraft

Departure

Time 2026-04-26 22:13
Airport Nashua Airport / Boire Field (KASH)

Arrival

Time N/A
Airport -
Time Latitude Longitude Altitude Speed Heading
2026-04-26 22:02 42.78174 -71.51765 196 ft 0 kts 243°
2026-04-26 22:03 42.78137 -71.51720 196 ft 13 kts 140°
2026-04-26 22:03 42.78109 -71.51685 196 ft 4 kts 123°
2026-04-26 22:03 42.78110 -71.51672 195 ft 1 kts 30°
2026-04-26 22:04 42.78114 -71.51669 195 ft 0 kts 32°
2026-04-26 22:06 42.78122 -71.51662 195 ft 4 kts 32°
2026-04-26 22:06 42.78134 -71.51652 194 ft 4 kts 31°
2026-04-26 22:06 42.78164 -71.51643 194 ft 13 kts 340°
2026-04-26 22:06 42.78231 -71.51763 196 ft 18 kts 301°
2026-04-26 22:07 42.78287 -71.51880 197 ft 9 kts 302°
2026-04-26 22:07 42.78338 -71.51994 197 ft 27 kts 301°
2026-04-26 22:07 42.78464 -71.52256 200 ft 36 kts 304°
2026-04-26 22:07 42.78554 -71.52393 201 ft 4 kts 332°
2026-04-26 22:08 42.78605 -71.52412 201 ft 0 kts 18°
2026-04-26 22:09 42.78607 -71.52411 201 ft 0 kts 19°
2026-04-26 22:09 42.78620 -71.52402 201 ft 0 kts 31°
2026-04-26 22:11 42.78624 -71.52399 201 ft 0 kts 30°
2026-04-26 22:12 42.78646 -71.52273 200 ft 34 kts 118°
2026-04-26 22:12 42.78426 -71.51823 287 ft 67 kts 121°
2026-04-26 22:12 42.78144 -71.51304 516 ft 71 kts 121°
2026-04-26 22:12 42.77850 -71.50703 682 ft 81 kts 122°
2026-04-26 22:13 42.77494 -71.50052 810 ft 92 kts 126°
2026-04-26 22:13 42.77060 -71.49396 1018 ft 89 kts 130°
2026-04-26 22:13 42.76601 -71.48807 1159 ft 95 kts 136°
2026-04-26 22:13 42.76058 -71.48325 1361 ft 94 kts 145°
2026-04-26 22:14 42.75465 -71.47911 1486 ft 99 kts 146°
2026-04-26 22:14 42.74811 -71.47546 1620 ft 103 kts 161°
2026-04-26 22:14 42.74112 -71.47410 1839 ft 96 kts 165°
2026-04-26 22:14 42.73414 -71.47330 1930 ft 106 kts 171°
2026-04-26 22:15 42.72673 -71.47271 2093 ft 103 kts 170°
2026-04-26 22:15 42.71970 -71.47212 2264 ft 101 kts 170°
2026-04-26 22:15 42.71249 -71.47160 2393 ft 104 kts 171°
2026-04-26 22:15 42.70512 -71.47154 2526 ft 106 kts 173°
2026-04-26 22:16 42.69796 -71.47115 2733 ft 100 kts 169°
2026-04-26 22:16 42.69085 -71.47041 2887 ft 102 kts 168°
2026-04-26 22:16 42.68362 -71.46925 2973 ft 109 kts 166°
2026-04-26 22:16 42.67597 -71.46804 3106 ft 108 kts 167°
2026-04-26 22:17 42.66851 -71.46706 3280 ft 105 kts 167°
2026-04-26 22:17 42.66110 -71.46635 3407 ft 107 kts 169°
2026-04-26 22:17 42.65369 -71.46544 3605 ft 101 kts 162°
2026-04-26 22:17 42.64866 -71.46078 3820 ft 85 kts 109°
2026-04-26 22:18 42.64397 -71.45414 3901 ft 100 kts 142°
2026-04-26 22:18 42.63706 -71.45210 4011 ft 111 kts 172°
2026-04-26 22:18 42.62831 -71.45216 3683 ft 139 kts 179°
2026-04-26 22:18 42.61882 -71.45346 3620 ft 137 kts 183°
2026-04-26 22:19 42.60925 -71.45527 3537 ft 135 kts 182°
2026-04-26 22:19 42.60077 -71.45664 3779 ft 114 kts 184°
2026-04-26 22:19 42.59234 -71.45815 3793 ft 120 kts 181°
2026-04-26 22:19 42.58352 -71.45972 3650 ft 134 kts 184°
2026-04-26 22:20 42.57442 -71.46170 3711 ft 126 kts 185°
2026-04-26 22:20 42.56573 -71.46338 3731 ft 126 kts 181°
2026-04-26 22:20 42.55654 -71.46516 3572 ft 137 kts 185°
2026-04-26 22:20 42.54722 -71.46719 3562 ft 131 kts 185°
2026-04-26 22:21 42.53848 -71.46802 3650 ft 122 kts 176°
2026-04-26 22:21 42.52964 -71.46854 3524 ft 134 kts 173°
2026-04-26 22:21 42.52000 -71.46791 3377 ft 136 kts 172°
2026-04-26 22:21 42.51069 -71.46652 3377 ft 125 kts 162°
2026-04-26 22:22 42.50232 -71.46422 3428 ft 124 kts 165°
2026-04-26 22:22 42.49310 -71.46275 3178 ft 140 kts 169°
2026-04-26 22:22 42.48309 -71.46159 2896 ft 142 kts 168°
2026-04-26 22:22 42.47383 -71.45966 2976 ft 125 kts 166°
2026-04-26 22:23 42.46511 -71.45815 2957 ft 126 kts 167°
2026-04-26 22:23 42.45563 -71.45674 2529 ft 149 kts 170°
2026-04-26 22:23 42.44497 -71.45609 2108 ft 150 kts 174°
2026-04-26 22:23 42.43507 -71.45585 2109 ft 127 kts 173°
2026-04-26 22:24 42.42666 -71.45561 2284 ft 114 kts 169°
2026-04-26 22:24 42.41925 -71.45459 2523 ft 102 kts 165°
2026-04-26 22:24 42.41276 -71.45301 2820 ft 89 kts 157°
2026-04-26 22:24 42.40636 -71.45126 2893 ft 106 kts 168°
2026-04-26 22:25 42.39865 -71.44922 2953 ft 108 kts 156°
2026-04-26 22:25 42.39029 -71.44712 2858 ft 121 kts 165°
2026-04-26 22:25 42.38228 -71.44495 2806 ft 128 kts 161°
2026-04-26 22:25 42.37418 -71.43933 2502 ft 137 kts 145°
2026-04-26 22:26 42.36443 -71.43574 2076 ft 149 kts 171°
2026-04-26 22:26 42.35450 -71.43484 1901 ft 141 kts 169°
2026-04-26 22:26 42.34436 -71.43327 1525 ft 145 kts 165°
2026-04-26 22:26 42.33469 -71.42989 1261 ft 140 kts 157°
2026-04-26 22:27 42.32748 -71.42403 1451 ft 110 kts 129°
2026-04-26 22:27 42.32347 -71.41561 1546 ft 104 kts 107°
2026-04-26 22:27 42.32159 -71.40558 1471 ft 110 kts 96°
2026-04-26 22:27 42.32111 -71.39499 1323 ft 119 kts 90°
2026-04-26 22:28 42.32173 -71.38458 1469 ft 104 kts 80°
2026-04-26 22:28 42.32272 -71.37489 1555 ft 102 kts 81°
2026-04-26 22:28 42.32362 -71.36498 1523 ft 109 kts 82°
2026-04-26 22:28 42.32436 -71.35506 1655 ft 99 kts 83°
2026-04-26 22:29 42.32519 -71.34604 1822 ft 94 kts 80°
2026-04-26 22:29 42.32629 -71.33705 1847 ft 103 kts 77°
2026-04-26 22:29 42.32798 -71.32741 1869 ft 104 kts 74°
2026-04-26 22:29 42.32988 -71.31753 1821 ft 109 kts 75°
2026-04-26 22:30 42.33167 -71.30729 1735 ft 113 kts 73°
2026-04-26 22:30 42.33417 -71.29741 1772 ft 107 kts 69°
2026-04-26 22:30 42.33670 -71.28796 1714 ft 114 kts 71°
2026-04-26 22:30 42.33921 -71.27734 1572 ft 117 kts 73°
2026-04-26 22:31 42.34128 -71.26697 1653 ft 106 kts 77°
2026-04-26 22:31 42.34264 -71.25736 1762 ft 101 kts 78°
2026-04-26 22:31 42.34420 -71.24766 1552 ft 117 kts 76°
2026-04-26 22:31 42.34611 -71.23692 1462 ft 115 kts 76°
2026-04-26 22:32 42.34790 -71.22685 1528 ft 109 kts 77°
2026-04-26 22:32 42.34957 -71.21688 1564 ft 107 kts 79°
2026-04-26 22:32 42.35033 -71.20727 1692 ft 101 kts 84°
2026-04-26 22:32 42.35083 -71.19916 1649 ft 107 kts 83°
2026-04-26 22:33 42.35170 -71.19122 1771 ft 98 kts 75°
2026-04-26 22:33 42.35652 -71.17290 1786 ft 108 kts 72°
2026-04-26 22:33 42.35866 -71.16330 1850 ft 105 kts 76°
2026-04-26 22:34 42.35901 -71.15320 1786 ft 112 kts 98°
2026-04-26 22:34 42.35764 -71.14278 1763 ft 113 kts 97°
2026-04-26 22:34 42.35573 -71.13223 1695 ft 116 kts 103°
2026-04-26 22:34 42.35377 -71.12206 1756 ft 109 kts 100°
2026-04-26 22:35 42.35249 -71.11190 1727 ft 111 kts 91°
2026-04-26 22:35 42.35320 -71.10142 1682 ft 113 kts 75°
2026-04-26 22:35 42.35610 -71.09177 1720 ft 109 kts 67°
2026-04-26 22:35 42.35954 -71.08245 1675 ft 112 kts 62°
2026-04-26 22:36 42.36388 -71.07243 1256 ft 131 kts 60°
2026-04-26 22:36 42.36843 -71.06244 1218 ft 120 kts 58°
2026-04-26 22:36 42.37164 -71.05336 1020 ft 98 kts 91°
2026-04-26 22:36 42.36546 -71.05057 822 ft 123 kts 185°
2026-04-26 22:37 42.35689 -71.05103 880 ft 114 kts 168°
2026-04-26 22:37 42.35059 -71.04676 810 ft 96 kts 126°
2026-04-26 22:37 42.34722 -71.03973 826 ft 78 kts 116°
2026-04-26 22:37 42.34587 -71.03316 778 ft 73 kts 90°
2026-04-26 22:38 42.34765 -71.02631 601 ft 86 kts 66°
2026-04-26 22:38 42.35055 -71.01970 465 ft 82 kts 51°
2026-04-26 22:38 42.35574 -71.01549 166 ft 92 kts 23°
2026-04-26 22:38 42.36124 -71.01280 16 ft 70 kts 21°
2026-04-26 22:39 42.36442 -71.01124 13 ft 23 kts 19°
2026-04-26 22:39 42.36549 -71.01157 12 ft 11 kts 297°
2026-04-26 22:39 42.36563 -71.01189 12 ft 3 kts 311°
2026-04-26 22:39 42.36648 -71.01183 10 ft 24 kts 20°
2026-04-26 22:40 42.36802 -71.01167 10 ft 21 kts 322°
2026-04-26 22:40 42.36919 -71.01317 10 ft 29 kts 315°
2026-04-26 22:40 42.37055 -71.01495 9 ft 27 kts 311°
2026-04-26 22:40 42.37175 -71.01659 10 ft 22 kts 309°
2026-04-26 22:41 42.37279 -71.01807 10 ft 27 kts 312°
2026-04-26 22:41 42.37402 -71.01965 10 ft 20 kts 316°
2026-04-26 22:41 42.37418 -71.02088 10 ft 7 kts 280°
2026-04-26 22:41 42.37387 -71.02099 10 ft 6 kts 116°
2026-04-26 22:42 42.37397 -71.02092 10 ft 0 kts 304°
2026-04-26 22:42 42.37398 -71.02093 10 ft 0 kts 317°